FENGYUN 1C DEB, 30144

Orbit data source: Space-Track

FENGYUN 1C DEB, 30144 is space debris in SSO originally from a launch on Mon, 10 May 1999 UTC launched from the Taiyaun Space Center, China (TSC). Fengyun 1C debris stems from the Chinese weather satellite Fengyun-1C, which was intentionally destroyed by a Chinese anti-satellite missile in 2007. This event dramatically increased the amount of space debris, with thousands of trackable fragments posing hazards to satellites and human spaceflight. The Fengyun 1C debris cloud has become a focal point in discussions about space sustainability and the need for international regulations to prevent the creation of new debris.

Loading next visibility...
Identifier
30144, 1999-025SZ
Orbit
SSO
Country
Flag of CNCN / PRC
Related business
Manufacturer
Unknown
Mission
Spacecraft
Bus & Motor
Unknown
Mass
Unknown
Launch date (UTC)
1999-05-10 (27 years ago)
Launch vehicle
Unknown
Launch site
Taiyaun Space Center, China (TSC)
Object type
Payload
Rocket body
Debris
Shape & HBR
Unknown shape, 0.1 m
Radar Cross Section
Medium (>0.1 m² and <1 m²)

Expand to show TLE details & history
Last TLE update: 12 hours ago

TLE from 12 hours ago
0 FENGYUN 1C DEB
1 30144U 99025SZ  26150.91835579  .00000649  00000-0  50743-3 0  9999
2 30144  99.0197 144.0737 0125802 188.9060 201.3201 13.92043226981947
Epoch: 2026-05-30T22:02Z
TLE epoch observation values (Epoch: 2026-05-30T22:02:25.940Z)
Latitude
29.35367°
Longitude
-80.05724°
Altitude
1,010.799 km
Speed
7.306 km/s
True Right ascension
09h 15m 54s
True Declination
29° 12' 43"
Sunlit
Object was in daylight at epoch
Visualization orbit readout
Latitude
Unknown
Longitude
Unknown
Altitude
Unknown
Speed
Unknown
Apparent Right ascension
Unknown
Apparent Declination
Unknown
Sunlit
N/A
Visualization observer readout
Local Sidereal Time
19:48:03
Azimuth
Unknown
Elevation
Unknown
Doppler factor
Unknown
Orbital elements
Apogee altitude
1,010.485 km
Perigee altitude
826.894 km
Semi-major axis
7,296.827 km
Eccentricity
0.01258
Inclination
99.0197°
RAAN
144.0737°
Arg. of periapsis
188.906°
True anomaly
200.80355°
Mean anomaly
201.3201°
Eccentric anomaly
201.06107°
Mean motion
3.48211 °/min
Orbital period
103.39 mins
BSTAR
0.00050743
Loading maneuver chart data...
Computing Atmospheric mass density...
Loading historical data...
Loading historical data...
Loading historical data...
Loading historical data...
Loading historical data...
Loading historical data...
Loading historical data...

Documentation

Showing up to 5 results
|